EA7RX-13 Weather Reports


Display with metric or nautical units.
time (UTC)temp
F
wind
direction
speed
MPH
gust
MPH
rain 1hr
in
rain 24hr
in
rain mn
in
humidity
%
barometer
mb
20260905185633 91 0.0 0.0 0.00 0.00 0.00 38 1016.4
20260905184633 92 0.0 0.0 0.00 0.00 0.00 37 1016.2
20260905183633 93 0.0 0.0 0.00 0.00 0.00 36 1016.0
20260905182633 93 0.0 0.0 0.00 0.00 0.00 35 1015.9
20260905181633 94 0.0 0.0 0.00 0.00 0.00 34 1015.7
20260905180633 95 0.0 0.0 0.00 0.00 0.00 34 1015.7
20260905175633 95 0.0 0.0 0.00 0.00 0.00 33 1015.5
20260905174633 96 0.0 0.0 0.00 0.00 0.00 32 1015.5
20260905173633 97 0.0 0.0 0.00 0.00 0.00 32 1015.3
20260905172633 98 0.0 0.0 0.00 0.00 0.00 32 1015.2
20260905171633 102 0.0 0.0 0.00 0.00 0.00 29 1014.8
20260905170633 102 0.0 0.0 0.00 0.00 0.00 29 1014.6
20260905165633 102 0.0 0.0 0.00 0.00 0.00 30 1014.6
20260905164633 101 0.0 0.0 0.00 0.00 0.00 36 1014.7
20260905163633 101 0.0 0.0 0.00 0.00 0.00 29 1014.6
20260905162633 102 0.0 0.0 0.00 0.00 0.00 28 1014.5
20260905161633 103 0.0 0.0 0.00 0.00 0.00 27 1014.5
20260905160633 102 0.0 0.0 0.00 0.00 0.00 28 1014.6
20260905155633 103 0.0 0.0 0.00 0.00 0.00 27 1014.6
20260905154633 102 0.0 0.0 0.00 0.00 0.00 29 1014.6
20260905153633 104 0.0 0.0 0.00 0.00 0.00 28 1014.5
20260905152633 105 0.0 0.0 0.00 0.00 0.00 26 1014.5
20260905151633 105 0.0 0.0 0.00 0.00 0.00 28 1014.6
20260905150633 104 0.0 0.0 0.00 0.00 0.00 29 1014.8
20260905145633 104 0.0 0.0 0.00 0.00 0.00 29 1014.7
20260905144633 106 0.0 0.0 0.00 0.00 0.00 28 1014.7
20260905143633 104 0.0 0.0 0.00 0.00 0.00 32 1015.1
20260905142633 103 0.0 0.0 0.00 0.00 0.00 32 1015.2
20260905141633 104 0.0 0.0 0.00 0.00 0.00 31 1015.2
20260905140633 102 0.0 0.0 0.00 0.00 0.00 33 1015.5
20260905135633 103 0.0 0.0 0.00 0.00 0.00 31 1015.3
20260905134633 103 0.0 0.0 0.00 0.00 0.00 29 1015.3
20260905133633 104 0.0 0.0 0.00 0.00 0.00 29 1015.4
20260905132633 106 0.0 0.0 0.00 0.00 0.00 29 1015.3
20260905131633 105 0.0 0.0 0.00 0.00 0.00 29 1015.5
20260905130633 102 0.0 0.0 0.00 0.00 0.00 30 1015.8
20260905125633 101 0.0 0.0 0.00 0.00 0.00 31 1015.7
20260905124633 101 0.0 0.0 0.00 0.00 0.00 30 1015.9
20260905123633 102 0.0 0.0 0.00 0.00 0.00 28 1015.8
20260905122633 103 0.0 0.0 0.00 0.00 0.00 28 1015.8
20260905121633 105 0.0 0.0 0.00 0.00 0.00 29 1015.7
20260905120633 104 0.0 0.0 0.00 0.00 0.00 29 1015.9
20260905115633 104 0.0 0.0 0.00 0.00 0.00 29 1016.0
20260905114633 102 0.0 0.0 0.00 0.00 0.00 31 1016.4
20260905113633 104 0.0 0.0 0.00 0.00 0.00 29 1016.3
20260905112633 103 0.0 0.0 0.00 0.00 0.00 29 1016.5
20260905111633 102 0.0 0.0 0.00 0.00 0.00 29 1016.5
20260905110633 103 0.0 0.0 0.00 0.00 0.00 29 1016.5
20260905105633 104 0.0 0.0 0.00 0.00 0.00 25 1016.6
20260905104633 104 0.0 0.0 0.00 0.00 0.00 26 1016.6
20260905103633 102 0.0 0.0 0.00 0.00 0.00 27 1016.9
20260905102633 101 0.0 0.0 0.00 0.00 0.00 28 1016.9
20260905101633 98 0.0 0.0 0.00 0.00 0.00 36 1017.3
20260905100633 96 0.0 0.0 0.00 0.00 0.00 37 1017.4
20260905095633 97 0.0 0.0 0.00 0.00 0.00 33 1017.4
20260905094633 95 0.0 0.0 0.00 0.00 0.00 35 1017.4
20260905093633 93 0.0 0.0 0.00 0.00 0.00 39 1017.4
20260905092633 92 0.0 0.0 0.00 0.00 0.00 39 1017.3
20260905091633 94 0.0 0.0 0.00 0.00 0.00 37 1017.2
20260905090633 94 0.0 0.0 0.00 0.00 0.00 39 1017.2
20260905085633 92 0.0 0.0 0.00 0.00 0.00 42 1017.5
20260905084633 91 0.0 0.0 0.00 0.00 0.00 43 1017.5
20260905083633 89 0.0 0.0 0.00 0.00 0.00 49 1017.7
20260905082633 88 0.0 0.0 0.00 0.00 0.00 52 1017.7
20260905081633 84 0.0 0.0 0.00 0.00 0.00 57 1017.9
20260905080633 84 0.0 0.0 0.00 0.00 0.00 49 1017.9
20260905075633 83 0.0 0.0 0.00 0.00 0.00 64 1017.9
20260905074633 83 0.0 0.0 0.00 0.00 0.00 60 1018.0
20260905073633 82 0.0 0.0 0.00 0.00 0.00 56 1017.9
20260905072633 83 0.0 0.0 0.00 0.00 0.00 52 1017.7
20260905071633 82 0.0 0.0 0.00 0.00 0.00 51 1017.8
20260905070633 81 0.0 0.0 0.00 0.00 0.00 59 1018.1
20260905065633 80 0.0 0.0 0.00 0.00 0.00 58 1017.9
20260905064633 78 0.0 0.0 0.00 0.00 0.00 60 1018.2
20260905063633 78 0.0 0.0 0.00 0.00 0.00 61 1018.2
20260905062633 77 0.0 0.0 0.00 0.00 0.00 59 1018.1
20260905061633 76 0.0 0.0 0.00 0.00 0.00 62 1018.2
20260905060633 75 0.0 0.0 0.00 0.00 0.00 63 1018.2
20260905055633 75 0.0 0.0 0.00 0.00 0.00 64 1018.1
20260905054633 75 0.0 0.0 0.00 0.00 0.00 61 1018.0
20260905053633 75 0.0 0.0 0.00 0.00 0.00 62 1017.9
20260905052633 76 0.0 0.0 0.00 0.00 0.00 62 1018.0
20260905051633 75 0.0 0.0 0.00 0.00 0.00 61 1017.9
20260905050633 75 0.0 0.0 0.00 0.00 0.00 63 1017.8
20260905045633 76 0.0 0.0 0.00 0.00 0.00 59 1017.8
20260905044633 76 0.0 0.0 0.00 0.00 0.00 59 1017.8
20260905043633 76 0.0 0.0 0.00 0.00 0.00 58 1017.7
20260905042633 76 0.0 0.0 0.00 0.00 0.00 60 1017.7
20260905041633 76 0.0 0.0 0.00 0.00 0.00 62 1017.9
20260905040633 77 0.0 0.0 0.00 0.00 0.00 63 1017.8
20260905035633 76 0.0 0.0 0.00 0.00 0.00 65 1017.8
20260905034633 77 0.0 0.0 0.00 0.00 0.00 61 1017.9
20260905033633 77 0.0 0.0 0.00 0.00 0.00 58 1017.8
20260905032633 77 0.0 0.0 0.00 0.00 0.00 59 1017.6
20260905031633 78 0.0 0.0 0.00 0.00 0.00 58 1017.6
20260905030633 78 0.0 0.0 0.00 0.00 0.00 56 1017.6
20260905025633 79 0.0 0.0 0.00 0.00 0.00 53 1017.7
20260905024633 79 0.0 0.0 0.00 0.00 0.00 56 1017.7
20260905023633 80 0.0 0.0 0.00 0.00 0.00 52 1017.5
20260905022633 80 0.0 0.0 0.00 0.00 0.00 51 1017.7
20260905021633 80 0.0 0.0 0.00 0.00 0.00 50 1017.6
20260905020633 80 0.0 0.0 0.00 0.00 0.00 49 1017.6
20260905015633 81 0.0 0.0 0.00 0.00 0.00 50 1017.4
20260905014633 81 0.0 0.0 0.00 0.00 0.00 46 1017.2
20260905013633 82 0.0 0.0 0.00 0.00 0.00 46 1017.1
20260905012633 81 0.0 0.0 0.00 0.00 0.00 47 1016.9
20260905011633 81 0.0 0.0 0.00 0.00 0.00 48 1016.8
20260905010633 81 0.0 0.0 0.00 0.00 0.00 48 1016.9
20260905005633 82 0.0 0.0 0.00 0.00 0.00 48 1017.0
20260905004633 82 0.0 0.0 0.00 0.00 0.00 46 1017.1
20260905003633 82 0.0 0.0 0.00 0.00 0.00 46 1017.3
20260905002633 83 0.0 0.0 0.00 0.00 0.00 44 1017.4
20260905001633 82 0.0 0.0 0.00 0.00 0.00 46 1017.4
20260905000633 84 0.0 0.0 0.00 0.00 0.00 42 1017.2
20260904235633 83 0.0 0.0 0.00 0.00 0.00 43 1017.2
20260904234633 83 0.0 0.0 0.00 0.00 0.00 43 1017.2
20260904233633 83 0.0 0.0 0.00 0.00 0.00 42 1017.2
20260904232633 84 0.0 0.0 0.00 0.00 0.00 41 1017.1
20260904231633 84 0.0 0.0 0.00 0.00 0.00 41 1017.1
20260904230633 84 0.0 0.0 0.00 0.00 0.00 41 1017.1
20260904225633 83 0.0 0.0 0.00 0.00 0.00 42 1017.0
20260904224633 84 0.0 0.0 0.00 0.00 0.00 41 1017.0
20260904223633 83 0.0 0.0 0.00 0.00 0.00 41 1016.9
20260904222633 84 0.0 0.0 0.00 0.00 0.00 42 1016.8
20260904221633 84 0.0 0.0 0.00 0.00 0.00 42 1016.8
20260904220633 84 0.0 0.0 0.00 0.00 0.00 43 1016.8
20260904215633 84 0.0 0.0 0.00 0.00 0.00 41 1016.9
20260904214633 84 0.0 0.0 0.00 0.00 0.00 42 1016.9
20260904213633 84 0.0 0.0 0.00 0.00 0.00 45 1017.0
20260904212633 84 0.0 0.0 0.00 0.00 0.00 42 1017.0
20260904211633 84 0.0 0.0 0.00 0.00 0.00 43 1017.0
20260904210633 84 0.0 0.0 0.00 0.00 0.00 44 1017.0
20260904205633 85 0.0 0.0 0.00 0.00 0.00 40 1016.9
20260904204633 85 0.0 0.0 0.00 0.00 0.00 44 1016.8
20260904203633 85 0.0 0.0 0.00 0.00 0.00 46 1016.5
20260904202633 84 0.0 0.0 0.00 0.00 0.00 47 1016.2
20260904201633 84 0.0 0.0 0.00 0.00 0.00 51 1016.2
20260904200633 85 0.0 0.0 0.00 0.00 0.00 46 1016.0
20260904195633 85 0.0 0.0 0.00 0.00 0.00 51 1015.9
20260904194633 85 0.0 0.0 0.00 0.00 0.00 50 1015.8
20260904193632 86 0.0 0.0 0.00 0.00 0.00 50 1015.6
20260904192633 86 0.0 0.0 0.00 0.00 0.00 50 1015.4
20260904191633 87 0.0 0.0 0.00 0.00 0.00 44 1015.1
20260904190633 88 0.0 0.0 0.00 0.00 0.00 44 1014.8